Regional Weather Roundup
Issued by NWS

Home | Current Version | Previous Version | Graphics & Text | Print | Product List | Glossary On
Versions: 1 2 3 4 5 6 7 8 9 10 11 12 13 14 15 16 17 18 19 20 21 22 23 24 25 26 27 28 29 30 31 32 33 34 35 36 37 38 39 40 41 42 43 44 45 46 47 48 49 50
602
ASUS43 KMKX 040900
RWRWI

WISCONSIN REGIONAL WEATHER ROUNDUP
NATIONAL WEATHER SERVICE MILWAUKEE/SULLIVAN WI
400 AM CDT WED MAY 04 2016

NOTE: "FAIR" INDICATES FEW OR NO CLOUDS BELOW 12,000 FEET WITH NO
SIGNIFICANT WEATHER AND/OR OBSTRUCTIONS TO VISIBILITY.

WIZ001-002-006>008-014>016-023>028-041000-
NORTHWEST WISCONSIN

CITY           SKY/WX    TMP DP  RH WIND       PRES   REMARKS
SUPERIOR ARPT  CLEAR     46  32  58 N10G17    29.91R
ASHLAND        CLEAR     37  32  82 N3        29.88R
HAYWARD        CLEAR     33  28  81 CALM      29.88R
SIREN          CLEAR     37  32  82 CALM      29.91R
CUMBERLAND     CLEAR     39  32  75 N5        29.88R
RICE LAKE      CLEAR     43  32  65 NW3       29.89S
CHETEK         CLEAR     44  34  67 N6        29.87S
LADYSMITH      CLEAR     40  34  79 NW7       29.87R
EAU CLAIRE     NOT AVBL
MENOMONIE      CLEAR     45  32  59 N7        29.88R
NEW RICHMOND   CLEAR     44  31  62 N5        29.90R
OSCEOLA        CLEAR     47  32  56 CALM      29.94R
$$

WIZ003>005-009-010-017-018-041000-
NORTH CENTRAL WISCONSIN

CITY           SKY/WX    TMP DP  RH WIND       PRES   REMARKS
MANITOWISH WTR CLOUDY    41  36  81 N9        29.81R
ARBOR VITAE    CLOUDY    42  37  83 N10G16    29.80R
WOODRUFF       CLOUDY    42  37  83 N10G16    29.80R
RHINELANDER    MOCLDY    40  34  79 VRB6      29.79S
EAGLE RIVER    CLOUDY    39  33  79 N8G16     29.79R WCI  34
LAND O LAKES   CLOUDY    39  36  87 N10G22    29.80R WCI  32
PHILLIPS       CLOUDY    42  35  76 NW6       29.82R
TOMAHAWK       CLOUDY    37  35  92 NW5       29.80S WCI  33
MEDFORD        CLEAR     38  36  92 NW7       29.80S WCI  32
MERRILL        CLEAR     37  37 100 NW3       29.80S
$$

WIZ029-030-035-036-043>047-041000-
CENTRAL WISCONSIN

CITY           SKY/WX    TMP DP  RH WIND       PRES   REMARKS
WAUSAU         CLEAR     42  36  79 NW6       29.77S
MOSINEE        PTCLDY    41  36  81 N8        29.79R
MARSHFIELD     MOCLDY    43  35  73 N12       29.80R
STEVENS POINT  MOCLDY    39  36  89 N10       29.78R WCI  32
WAUPACA        CLEAR     44  41  89 N8        29.75R
WAUTOMA        CLEAR     43  40  89 N8        29.76R
WISC RAPIDS    CLOUDY    44  38  79 N12       29.79R
CAMP DOUGLAS   MOCLDY    44  44 100 N9        29.79R
$$

WIZ011>013-019>022-031-037>040-048>050-041000-
NORTHEAST WISCONSIN

CITY           SKY/WX    TMP DP  RH WIND       PRES   REMARKS
ANTIGO         PTCLDY    37  34  90 N10       29.76S WCI  30
SHAWANO        CLEAR     43  37  79 N7        29.75R
OCONTO         PTCLDY    41  39  90 N15       29.73S
STURGEON BAY   PTCLDY    41  34  75 N15       29.73S
GREEN BAY      LGT RAIN  42  37  82 N13       29.73R
MANITOWOC      NOT AVBL
APPLETON       CLEAR     43  39  87 N13       29.71R
CLINTONVILLE   PTCLDY    41  37  87 N8        29.75R
OSHKOSH        PTCLDY    44  39  82 N15       29.72R
$$

WIZ032>034-041-042-053>061-041000-
SOUTHWEST WISCONSIN

CITY           SKY/WX    TMP DP  RH WIND       PRES   REMARKS
LA CROSSE      PTCLDY    48  39  71 N13G23    29.82R
SPARTA         MOCLDY    44  42  93 N7        29.81R
VIROQUA        CLEAR     45  45 100 N12       29.78R
BOSCOBEL       FOG       43  42  97 CALM      29.77R VSB 1/4
PRAIRIE DU CHI CLEAR     47  46  96 NW5       29.76R FOG
PLATTEVILLE    CLEAR     45  45 100 NW8       29.73R
$$

WIZ056-057-062-063-064-067-068-041000-
SOUTH CENTRAL WISCONSIN

CITY           SKY/WX    TMP DP  RH WIND       PRES   REMARKS
REEDSBURG      PTCLDY    46  43  91 N10       29.74R
BARABOO/DELLS  MOCLDY    44  42  93 N8        29.74R
LONE ROCK      NOT AVBL
MINERAL POINT  FOG       45  45 100 N3        29.73R VSB 1/2
MADISON        CLEAR     45  43  93 N8        29.71R
MIDDLETON      CLEAR     47  44  91 N7        29.72R
WATERTOWN      CLEAR     45  45 100 N7        29.68R
MONROE         CLEAR     45  43  93 NW10      29.69R
JANESVILLE     CLEAR     43  43 100 NW5       29.68R
$$

WIZ051-052-058>065-066-070>072-041000-
SOUTHEAST WISCONSIN

CITY           SKY/WX    TMP DP  RH WIND       PRES   REMARKS
MILWAUKEE      CLOUDY    46  40  79 N22G30    29.67R
WAUKESHA       MOCLDY    45  43  93 N9        29.68R
MILWAUKEE/TIMM CLOUDY    46  43  87 N13       29.67R
RACINE         CLOUDY    47  44  90 N16       29.67R
BURLINGTON     CLOUDY    46  45  99 NW7       29.66R
KENOSHA        CLOUDY    48  46  93 N7        29.65S
FOND DU LAC    CLOUDY    47  42  83 N17G24    29.72R
SHEBOYGAN      CLEAR     45  40  82 N10       29.68R
WEST BEND      PTCLDY    45  41  87 N6        29.68R
JUNEAU         CLEAR     44  42  95 N10       29.71R
$$

LSZ147-162-041000-
LAKE SUPERIOR

STATION/POSITION TIME  TEMP    WIND        PRES    WAVE
                       AIR SEA DIR/SP/G            HT/PER
                 (UTC) (F)     (DEG/KT/KT) (MB)    (FT/S)
W MID LAKE BUOY  0750   42 37  360/  8/ 10 1011.2R   1/ 4
DEVILS ISLAND    0800   45     350/ 13/ 14 1012.0R
SAXON HARBOR     0840   38     190/  3/  3 1010.8R
$$

LMZ867-665-643>646-041000-
LAKE MICHIGAN

STATION/POSITION TIME  TEMP    WIND        PRES    WAVE
                       AIR SEA DIR/SP/G            HT/PER
                 (UTC) (F)     (DEG/KT/KT) (MB)    (FT/S)
CHAMBERS ISLAND  0800   42     320/ 17/ 21 1006.1F
N MID LAKE BUOY  0750   40 38  320/ 16/ 17 1004.3S   3/ 4
NORTHPORT PIER   0800   41     330/ 19/ 23 1005.8S
ALGOMA LAKESHORE 0815          340/ 14/ 19   N/A
KEWAUNEE LAKESHO 0800   44     360/ 10/ 20 1004.8S
SHEBOYGAN LAKESH 0800   44      10/ 17/ 18 1005.0R
PORT WASHINGTON  0800   49      30/ 16/ 24 1005.4R
S MID LAKE BUOY  0750   45 41   10/ 14/ 16 1002.5F   1/ 3
KENOSHA   LAKESH 0800   47      10/ 16/ 18 1004.1S
$$

TC  - TEMPERATURE IN CELSIUS
VSB - VISIBILITY IN STATUTE MILES
WCI - WIND CHILL INDEX
HX  - HEAT INDEX





USA.gov is the U.S. government's official web portal to all federal, state and local government web resources and services.